Location: Eagle Observatory
(42.5300°N, 88.2800°W)
Time: 09:18:21
(UTC-06:00)

Hubble Space Telescope - Visible Passes

Search period start: 27 February 2015 00:00
Search period end: 09 March 2015 01:00
Orbit: 543 x 548 km, 28.5° (Epoch: 26 February)

Date Brightness Start Highest point End Pass type
(mag) Time Alt. Az. Time Alt. Az. Time Alt. Az.
27 Feb 3.3 04:51:30 10° S 04:52:05 10° S 04:52:42 10° SSE visible
28 Feb 3.3 04:43:10 11° S 04:43:46 11° S 04:44:57 10° SSE visible
01 Mar 3.2 04:35:26 11° S 04:35:26 11° S 04:36:51 10° SSE visible
02 Mar 3.3 04:27:43 11° S 04:27:43 11° S 04:28:34 10° SSE visible
03 Mar 3.4 04:19:59 10° SSE 04:19:59 10° SSE 04:20:08 10° SSE visible
